Regional Weather Roundup
Issued by NWS

Home | Current Version | Previous Version | Graphics & Text | Print | Product List | Glossary On
Versions: 1 2 3 4 5 6 7 8 9 10 11 12 13 14 15 16 17 18 19 20 21 22 23 24 25 26 27 28 29 30 31 32 33 34 35 36 37 38 39 40 41 42 43 44 45 46 47 48 49 50
000
ASUS43 KIND 281759
RWRIN

WEATHER ROUNDUP FOR INDIANA
NATIONAL WEATHER SERVICE INDIANAPOLIS IN
200 PM EDT TUE JUL 28 2015

NOTE: "FAIR" INDICATES FEW OR NO CLOUDS BELOW 12,000 FEET WITH NO
SIGNIFICANT WEATHER AND/OR OBSTRUCTIONS TO VISIBILITY.

* - STATION DOES NOT REPORT WEATHER SUCH AS PRECIPITATION OR FOG.

+ - STATION NOT QUALITY CONTROLLED BY THE NATIONAL WEATHER SERVICE.
    USE DATA WITH CAUTION...ESPECIALLY DEWPOINT AND RELATIVE
    HUMIDITY OBSERVATIONS.

INZ001>003-010>013-019-020-281900-
NORTHWEST INDIANA

CITY           SKY/WX    TMP DP  RH WIND       PRES   REMARKS

$$

LMZ046-743>745-281900-
SOUTHERN LAKE MICHIGAN

STATION/POSITION TIME  TEMP    WIND        PRES    WAVE
                       AIR SEA DIR/SP/G            HT
                 (UTC) (F)     (DEG/KT/KT) (MB)    (FT)
BURNS HARBOR     1700   85     170/  3/ 12 1015.9F
MICHIGAN CITY    1700   83     140/  6/ 10   N/A
5NW MICH CITY    1700   81 76  180/  2/  4   N/A     1

$$

INZ004-005-014>016-021>024-281900-
NORTH CENTRAL INDIANA

CITY           SKY/WX    TMP DP  RH WIND       PRES   REMARKS
GOSHEN         SUNNY     87  67  51 SE8       30.02F
6HR MIN TEMP:  69; 6HR MAX TEMP:  87;

SOUTH BEND     NOT AVBL

$$

INZ006>009-017-018-025>027-281900-
NORTHEAST INDIANA

CITY           SKY/WX    TMP DP  RH WIND       PRES   REMARKS
ANGOLA *+      SUNNY     88  66  48 SE9       30.04S
FORT WAYNE     NOT AVBL

$$

INZ028-029-035-036-043>045-051>053-281900-
WEST CENTRAL INDIANA

CITY           SKY/WX    TMP DP  RH WIND       PRES   REMARKS
GREENCASTLE +  MOSUNNY   86  72  62 S5        29.99F
LAFAYETTE      NOT AVBL
TERRE HAUTE    MOSUNNY   90  75  61 SW8       29.97F HX 100
6HR MIN TEMP:  75; 6HR MAX TEMP:  90;


$$

INZ030>032-037>040-046>048-054>057-064-065-281900-
CENTRAL INDIANA

CITY           SKY/WX    TMP DP  RH WIND       PRES   REMARKS
COLUMBUS       PTSUNNY   86  72  62 CALM      29.99
GREENWOOD *+   MOSUNNY   86  70  58 SE3       30.00F
INDIANAPOLIS   NOT AVBL
-EAGLE CREEK   MOSUNNY   88  71  57 CALM      29.98F
6HR MIN TEMP:  74; 6HR MAX TEMP:  89;

SHELBYVILLE    MOSUNNY   89  74  60 CALM      29.99F HX  98
6HR MIN TEMP:  73; 6HR MAX TEMP:  89;


$$

INZ033-034-041-042-049-050-058-059-281900-
EAST CENTRAL INDIANA

CITY           SKY/WX    TMP DP  RH WIND       PRES   REMARKS
MUNCIE         NOT AVBL

$$

INZ060-061-067>069-081>083-085>088-281900-
SOUTHWEST INDIANA

CITY           SKY/WX    TMP DP  RH WIND       PRES   REMARKS
EVANSVILLE     NOT AVBL

$$

INZ062-063-066-070>080-084-089>092-281900-
SOUTH CENTRAL AND SOUTHEAST INDIANA

CITY           SKY/WX    TMP DP  RH WIND       PRES   REMARKS
BLOOMINGTON    PTSUNNY   88  74  63 CALM      29.99F HX  96
6HR MIN TEMP:  75; 6HR MAX TEMP:  89;

SEYMOUR +      MOSUNNY   90  73  58 CALM      29.98F HX  98

$$




USA.gov is the U.S. government's official web portal to all federal, state and local government web resources and services.